Regional Weather Roundup
Issued by NWS

Home | Current Version | Previous Version | Text Only | Print | Product List | Glossary Off
Versions: 1 2 3 4 5 6 7 8 9 10 11 12 13 14 15 16 17 18 19 20 21 22 23 24 25 26 27 28 29 30 31 32 33 34 35 36 37 38 39 40 41 42 43 44 45 46 47 48 49 50

000
ASUS45 KBOU 280807
RWRCO

WEATHER ROUNDUP FOR COLORADO
NATIONAL WEATHER SERVICE DENVER/BOULDER CO
100 AM MST FRI NOV 28 2014

NOTE: "FAIR" INDICATES FEW OR NO CLOUDS BELOW 12000 FEET WITH NO
SIGNIFICANT WEATHER AND/OR OBSTRUCTIONS TO VISIBILITY.

COZ001>005-013-030-031-280900-
...NORTHWEST COLORADO...

CITY           SKY/WX    TMP DP  RH WIND       PRES   REMARKS
CRAIG          CLEAR     25  22  88 CALM      30.21F
HAYDEN         PTCLDY    28  21  74 SE10      30.21F WCI  19
MEEKER         MOCLDY    33  22  63 E3        30.23F
MOUNT WERNER   NOT AVBL
STEAMBOAT SPGS CLEAR     25  24  95 CALM      30.24F
WALDEN         CLOUDY    34  18  51 SE10      30.23F WCI  26
$$

COZ006>008-011-280900-
...WEST CENTRAL VALLEYS...

CITY           SKY/WX    TMP DP  RH WIND       PRES   REMARKS
GRAND JUNCTION PTCLDY    32  24  72 E6        30.26F WCI  26
MONTROSE       MOCLDY    30  22  72 S10       30.29F WCI  21
EAGLE          PTCLDY    27  25  93 E3        30.30F
RIFLE          CLOUDY    32  27  81 CALM      30.28F
DELTA          MOCLDY    31  23  73 CALM      30.28F
NUCLA          MOCLDY    32  21  64 SE6       30.32F WCI  26
$$

COZ017>023-064>068-280900-
...SOUTHWEST COLORADO...

CITY           SKY/WX    TMP DP  RH WIND       PRES   REMARKS
DURANGO        PTCLDY    23  18  81 CALM      30.34F
CORTEZ         CLEAR     24  17  74 NE5       30.32F WCI  18
PAGOSA SPRINGS PTCLDY    26  20  78 CALM      30.36F
TELLURIDE      MOCLDY    35  15  45 SE7       30.42F WCI  29
WOLF CREEK PAS CLEAR     30   9  40 MISG      30.46F
$$

COZ009-010-012-014-032>034-037-058>063-280900-
...CENTRAL COLORADO...

CITY           SKY/WX    TMP DP  RH WIND       PRES   REMARKS
ASPEN          PTCLDY    32  20  61 SW7       30.28F WCI  26
BUENA VISTA    CLEAR     47   8  20 NW12G21   30.24F
COPPER MTN     CLEAR     34   7  32 W22G36    30.40F WCI  22
BERTHOUD PASS  NOT AVBL
COTTONWOOD PAS CLEAR     45   0  15 W37G58    30.26F
GUNNISON       PTCLDY    16   9  73 N3        30.41F
KREMMLING      PTCLDY    30  25  80 CALM      30.28F
LEADVILLE      PTCLDY    32   9  38 NE9       30.32F WCI  24
MONARCH PASS   PTCLDY    28  10  47 W40G46    30.48F WCI  11
SALIDA         CLEAR     49   9  20 SW20G25   30.29S
SUNLIGHT       MOCLDY    32  21  64 CALM      30.38F
WILKERSON PASS CLEAR     32   5  32 W15G31    30.30F WCI  22
$$

COZ069>075-280900-
...SAN LUIS VALLEY/SANGRE DE CRISTO MOUNTAINS...

CITY           SKY/WX    TMP DP  RH WIND       PRES   REMARKS
ALAMOSA        PTCLDY    15   9  76 W5        30.31F WCI   8
LA VETA PASS   PTCLDY    34  16  47 S8G21     30.34F WCI  27
SAGUACHE       PTCLDY    30  18  59 N7        30.31F WCI  23
$$

COZ035-036-038>040-280900-
...NORTHERN COLORADO FRONT RANGE...

CITY           SKY/WX    TMP DP  RH WIND       PRES   REMARKS
DENVER INTL AP MOCLDY    51  16  24 SW10      30.03F
DMNS CITY PARK   N/A     50  15  24 SW15      30.04S
AURORA         PTCLDY    48  16  28 S7        30.06F
FRONT RANGE AP MOCLDY    43  23  45 S10       30.04F
ERIE MUNI ARPT PTCLDY    38  21  49 CALM      30.00F
BOULDER MUN AP PTCLDY    45  19  36 SE3       30.00F
CENTENNIAL     PTCLDY    42  17  36 S10       30.06F
BROOMFIELD     PTCLDY    52  16  24 SW3       30.04F
FORT COLLINS   PTCLDY    61  18  18 SW25G37   30.00F
LONGMONT       PTCLDY    49  18  29 SE7       30.01F
$$

COZ041-046-047-076>085-087-088-280900-
...PIKES PEAK/PALMER DIVIDE AND SOUTHERN FOOTHILLS...

CITY           SKY/WX    TMP DP  RH WIND       PRES   REMARKS
COLO. SPRINGS  PTCLDY    52  12  20 SW7       30.13F
A. F. ACADEMY  PTCLDY    55   8  15 VRB7      30.13F
ELLICOTT       NOT AVBL
FALCON         NOT AVBL
FORT CARSON    PTCLDY    50  15  24 W10       30.10F
LIMON          CLEAR     34  18  52 N3        30.07F
MONUMENT HILL  PTCLDY    36  14  41 SW10      30.13F
TRINIDAD       PTCLDY    39  22  50 SW15      30.17F
$$

COZ042>045-048>051-090-091-280900-
...NORTHEAST COLORADO...

CITY           SKY/WX    TMP DP  RH WIND       PRES   REMARKS
GREELEY ARPT   MOCLDY    28  18  64 N7        30.02S WCI  21
AKRON          PTCLDY    43  24  47 SW14      30.00F
BURLINGTON     CLEAR     35  20  54 W7        30.03F WCI  29
WRAY           CLEAR     34  28  76 W9        29.99F WCI  27
STERLING       PTCLDY    34  28  80 S3        29.98F
HOLYOKE        CLEAR     36  30  80 W10       29.98F
FORT MORGAN    PTCLDY    37  23  57 W7        30.01F
$$

COZ086-089-092>099-280900-
...SOUTHEAST COLORADO...

CITY           SKY/WX    TMP DP  RH WIND       PRES   REMARKS
PUEBLO         PTCLDY    40  22  48 W13       30.10S
LA JUNTA       PTCLDY    40  23  50 CALM      30.07F
LAMAR          PTCLDY    32  21  64 SW5       30.03F WCI  27
SPRINGFIELD      N/A     48  18  30 W13       30.06F
$$



USA.gov is the U.S. government's official web portal to all federal, state and local government web resources and services.